Skip Page Navigation
NASA JPL Caltech
NASA Logo - Jet Propulsion Laboratory + View the NASA Portal
+ Near-Earth Object (NEO) Program
Search JPL
JPL Home Earth Solar System Stars & Galaxies Technology
JPL Solar System Dynamics
BODIES ORBITS EPHEMERIDES TOOLS PHYSICAL DATA DISCOVERY FAQ SITE MAP
JPL Small-Body Database Browser
Search: [ help ]  
210144 (2006 SZ56)
Classification: Main-belt Asteroid          SPK-ID: 2210144
Ephemeris | Orbit Diagram | Orbital Elements | Physical Parameters | Discovery Circumstances ]

[ hide orbit diagram ]
Orbit Diagram
Note: Make sure you have Java enabled on your browser to see the applet. This applet is provided as a 3D orbit visualization tool. The applet was implemented using 2-body methods, and hence should not be used for determining accurate long-term trajectories (over several years or decades) or planetary encounter circumstances. For accurate long-term ephemerides, please instead use our Horizons system.
Orbit Viewer

Additional Notes: the orbits shown in the applet are color coded. The planets are white lines, and the asteroid/comet is a blue line. The bright white line indicates the portion of the orbit that is above the ecliptic plane, and the darker portion is below the ecliptic plane. Likewise for the asteroid/comet orbit, the light blue indicates the portion above the ecliptic plane, and the dark blue the portion below the ecliptic plane.

Orbit Viewer applet originally written and kindly provided by Osamu Ajiki (AstroArts), and further modified by Ron Baalke (JPL).


Orbital Elements at Epoch 2456400.5 (2013-Apr-18.0) TDB
Reference: MPO248438 (heliocentric ecliptic J2000)
 Element Value Uncertainty (1-sigma)   Units 
e 0.2025237 n/a  
a 3.1048182 n/a AU
q 2.4760189 n/a AU
i 1.16459 n/a deg
node 19.97031 n/a deg
peri 292.58097 n/a deg
M 121.61861 n/a deg
tp 2455725.4278058
(2011-Jun-12.92780580)
n/a JED
period 1998.2631763
5.47
n/a
n/a
d
yr
n 0.18015645 n/a deg/d
Q 3.7336175 n/a AU
  Orbit Determination Parameters
   # obs. used (total)      170  
   first obs. used      1995-??-??  
   last obs. used      2012-12-08  
   # oppositions      8  
   planetary ephem.      DE403  
   condition code      0  
   fit RMS      0.43  
   data source      MPC:mpu  
   producer      MPCLINUX  

Additional Information
 T_jup = 3.188 

Ephemeris | Orbit Diagram | Orbital Elements | Physical Parameters | Discovery Circumstances ]

Physical Parameter Table
Parameter Symbol Value Units Sigma Reference Notes
absolute magnitude H 16.0 mag n/a MPO248438  

210144 (2006 SZ56)          Discovered 2006-Sep-18 by Calvin College at Calvin-Rehoboth (G98)
Reference: 20090311/Numbers.arcLast Updated: 2009-03-12

Alternate Designations
 2006 SZ56 = 1995 SE27 = 2000 QH21 
Ephemeris | Orbit Diagram | Orbital Elements | Physical Parameters | Discovery Circumstances ]
ABOUT SSD CREDITS/AWARDS PRIVACY/COPYRIGHT GLOSSARY LINKS
FirstGov 2013-May-20 08:45 UT
(server date/time)  
NASA Home Page
Site Manager:   Donald K. Yeomans
Webmaster  Alan B. Chamberlin